Notices

What's New in latest Release from April 7th, 2021:

- Updated Glossary, including Speed of Maximum Gust, and Total Hourly Precipitation

- Updated national and regional climate services offices contacts and prices information

- Addition of station inventory lists for 1981-2010, 1971-2000, and 1961-1990 Normals.

If you haven't already, please take our survey and provide feedback about our website: https://eccc.sondage-survey.ca/f/LanguageSelection.aspx?s=442ca660-fcf1-47c0-95a9-59707d6fd709

Hourly Data Report for February 09, 2012

HALIFAX STANFIELD INT'L A
NOVA SCOTIA

44°52'48.060" N
63°30'00.050" W
145.40 m
8202250
71395
YHZ

Download Data

Hourly Data (February 2012)
Hourly Data Report for February 9, 2012
TIME
LST
Temp Definition
°C
Dew Point Definition
°C
Rel Hum Definition
%
Precip. Amount Definition
mm

Wind Dir Definition
10's deg

Wind Spd Definition
km/h
Visibility Definition
km
Stn Press Definition
kPa
Hmdx Definition


Wind Chill Definition


Weather Definition


00:00 -8.7 -12.1 76   20 11 24.1 100.25   -14 Cloudy
01:00 -8.0 -11.0 79   15 13 24.1 100.20   -14 Cloudy
02:00 -7.4 -10.3 80   15 4 24.1 100.18   -9 Cloudy
03:00 -7.2 -9.8 82   14 15 24.1 100.11   -13 Cloudy
04:00 -6.9 -9.0 85   14 13 24.1 100.08   -12 Cloudy
05:00 -7.6 -9.1 89   18 7 24.1 100.12   -11 Mostly Cloudy
06:00 -6.3 -7.6 90   16 6 24.1 100.07   -9 Cloudy
07:00 -5.0 -6.2 91   13 6 24.1 99.94   -8 Mostly Cloudy
08:00 -4.7 -6.0 91   16 9 24.1 99.97   -9 Cloudy
09:00 -3.4 -5.3 87   12 11 24.1 99.86   -8 Cloudy
10:00 -2.2 -5.0 81   13 9 24.1 99.76   -6 Cloudy
11:00 -1.3 -4.8 77   11 7 24.1 99.71   -4 Cloudy
12:00 -0.8 -4.9 74   13 15 24.1 99.75   -5 Cloudy
13:00 -0.7 -4.7 74   5 13 24.1 99.52   -5 Cloudy
14:00 -0.3 -4.6 73   5 4 24.1 99.34   -2 Cloudy
15:00 -0.2 -4.1 75   3 7 24.1 99.34   -3 Cloudy
16:00 -0.7 -4.8 74   36 13 24.1 99.31   -5 Cloudy
17:00 -1.0 -5.3 73   35 11 24.1 99.28   -5 Mostly Cloudy
18:00 -1.1 -5.2 74   32 13 24.1 99.25   -5 Mostly Cloudy
19:00 -1.1 -4.8 76   32 19 24.1 99.26   -6 Mostly Cloudy
20:00 -1.5 -4.8 78   32 19 24.1 99.28   -7 Mostly Cloudy
21:00 -2.2 -5.1 80   33 19 24.1 99.34   -8 Mostly Cloudy
22:00 -2.3 -4.5 85   32 26 24.1 99.35   -9 Mostly Cloudy
23:00 -2.4 -4.7 84   32 20 24.1 99.39   -8 Mainly Clear

Notes on Data Quality.

Legend

  • E = Estimated
  • M = Missing
  • NA = Not Available*
  • [empty] = Indicates an unobserved value
Date modified: